N3452E KBNA-KSRQ

Flight info

Callsign N3452E
Flight time N/A
Altitude 39000
Route TIPPN4 DENST ACORI BANGZ2 KSRQ
Aircraft CL60/M-VGDW/C

Departure

Time N/A
Airport Nashville International Airport (KBNA)

Arrival

Time 2026-04-26 05:38
Airport Sarasota Bradenton International Airport (KSRQ)
Time Latitude Longitude Altitude Speed Heading
2026-04-26 04:15 35.82261 -86.29171 25526 ft 358 kts 161°
2026-04-26 04:15 35.79979 -86.27939 26403 ft 362 kts 161°
2026-04-26 04:16 35.77648 -86.26682 27195 ft 368 kts 161°
2026-04-26 04:16 35.75304 -86.25418 27983 ft 372 kts 162°
2026-04-26 04:16 35.72923 -86.24136 28712 ft 377 kts 162°
2026-04-26 04:16 35.70524 -86.22845 29411 ft 381 kts 162°
2026-04-26 04:17 35.68071 -86.21526 30103 ft 386 kts 162°
2026-04-26 04:17 35.65590 -86.20193 30686 ft 392 kts 162°
2026-04-26 04:17 35.63086 -86.18848 31234 ft 397 kts 162°
2026-04-26 04:17 35.60545 -86.17484 31782 ft 402 kts 163°
2026-04-26 04:18 35.57946 -86.16092 32271 ft 408 kts 162°
2026-04-26 04:18 35.55345 -86.14699 32741 ft 413 kts 162°
2026-04-26 04:18 35.52681 -86.13271 33261 ft 416 kts 163°
2026-04-26 04:18 35.50020 -86.11848 33699 ft 421 kts 163°
2026-04-26 04:19 35.47332 -86.10410 34233 ft 423 kts 163°
2026-04-26 04:19 35.44661 -86.08979 34911 ft 420 kts 163°
2026-04-26 04:19 35.41997 -86.07553 35579 ft 416 kts 163°
2026-04-26 04:19 35.39337 -86.06131 36238 ft 412 kts 163°
2026-04-26 04:20 35.36721 -86.04734 36825 ft 410 kts 163°
2026-04-26 04:20 35.34110 -86.03342 37283 ft 410 kts 163°
2026-04-26 04:20 35.31507 -86.01957 37696 ft 411 kts 163°
2026-04-26 04:20 35.28878 -86.00558 38101 ft 412 kts 163°
2026-04-26 04:21 35.26231 -85.99152 38490 ft 413 kts 163°
2026-04-26 04:21 35.23622 -85.97765 38851 ft 414 kts 163°
2026-04-26 04:21 35.20943 -85.96346 38909 ft 420 kts 163°
2026-04-26 04:22 35.15478 -85.93455 38919 ft 437 kts 162°
2026-04-26 04:22 35.09752 -85.90430 38928 ft 455 kts 162°
2026-04-26 04:23 35.03874 -85.87325 38906 ft 472 kts 162°
2026-04-26 04:23 34.97745 -85.84092 38902 ft 486 kts 161°
2026-04-26 04:24 34.91442 -85.80771 38911 ft 497 kts 161°
2026-04-26 04:24 34.85054 -85.77409 38909 ft 505 kts 161°
2026-04-26 04:25 34.78412 -85.74548 38916 ft 499 kts 172°
2026-04-26 04:25 34.71624 -85.73556 38911 ft 487 kts 186°
2026-04-26 04:26 34.64872 -85.73806 38913 ft 483 kts 188°
2026-04-26 04:26 34.58141 -85.74095 38913 ft 484 kts 188°
2026-04-26 04:27 34.51416 -85.74384 38916 ft 484 kts 188°
2026-04-26 04:27 34.44654 -85.74674 38912 ft 485 kts 188°
2026-04-26 04:28 34.37909 -85.74963 38912 ft 485 kts 188°
2026-04-26 04:28 34.31169 -85.75253 38907 ft 486 kts 188°
2026-04-26 04:29 34.24416 -85.75542 38902 ft 486 kts 188°
2026-04-26 04:29 34.17642 -85.75831 38911 ft 487 kts 188°
2026-04-26 04:30 34.10838 -85.76122 38896 ft 488 kts 188°
2026-04-26 04:30 34.04030 -85.76411 38908 ft 489 kts 189°
2026-04-26 04:31 33.97198 -85.76702 38914 ft 489 kts 188°
2026-04-26 04:31 33.90398 -85.76990 38929 ft 488 kts 188°
2026-04-26 04:32 33.83604 -85.77279 38908 ft 489 kts 188°
2026-04-26 04:32 33.76763 -85.77568 38908 ft 490 kts 188°
2026-04-26 04:33 33.69946 -85.77856 38914 ft 491 kts 188°
2026-04-26 04:33 33.63077 -85.78147 38899 ft 493 kts 189°
2026-04-26 04:34 33.56232 -85.78435 38906 ft 492 kts 188°
2026-04-26 04:34 33.49386 -85.78722 38919 ft 492 kts 188°
2026-04-26 04:35 33.42548 -85.79010 38909 ft 494 kts 189°
2026-04-26 04:35 33.35639 -85.79300 38908 ft 494 kts 189°
2026-04-26 04:36 33.28740 -85.79589 38903 ft 496 kts 188°
2026-04-26 04:36 33.21895 -85.79874 38897 ft 495 kts 188°
2026-04-26 04:37 33.14964 -85.80164 38898 ft 496 kts 188°
2026-04-26 04:37 33.08060 -85.80452 38889 ft 497 kts 188°
2026-04-26 04:38 33.01165 -85.80739 38909 ft 498 kts 189°
2026-04-26 04:38 32.94225 -85.81027 38897 ft 498 kts 189°
2026-04-26 04:39 32.87260 -85.81316 38904 ft 499 kts 189°
2026-04-26 04:39 32.80308 -85.81604 38900 ft 499 kts 188°
2026-04-26 04:40 32.73367 -85.81891 38899 ft 499 kts 188°
2026-04-26 04:40 32.66444 -85.82175 38889 ft 497 kts 188°
2026-04-26 04:41 32.59506 -85.82461 38892 ft 496 kts 188°
2026-04-26 04:41 32.52583 -85.82747 38888 ft 497 kts 188°
2026-04-26 04:42 32.45663 -85.83031 38890 ft 498 kts 188°
2026-04-26 04:42 32.38728 -85.83317 38888 ft 498 kts 188°
2026-04-26 04:43 32.31798 -85.83601 38888 ft 497 kts 188°
2026-04-26 04:43 32.24886 -85.83884 38891 ft 498 kts 188°
2026-04-26 04:44 32.17979 -85.84166 38892 ft 497 kts 188°
2026-04-26 04:44 32.11050 -85.84448 38902 ft 496 kts 188°
2026-04-26 04:45 32.04130 -85.84731 38908 ft 497 kts 188°
2026-04-26 04:45 31.97227 -85.85012 38913 ft 497 kts 188°
2026-04-26 04:46 31.90319 -85.85267 38915 ft 498 kts 186°
2026-04-26 04:46 31.83328 -85.84506 38919 ft 508 kts 174°
2026-04-26 04:47 31.76520 -85.82117 38915 ft 516 kts 161°
2026-04-26 04:47 31.70181 -85.78081 38913 ft 523 kts 148°
2026-04-26 04:48 31.61775 -85.69778 38908 ft 526 kts 140°
2026-04-26 04:48 31.56290 -85.64131 38909 ft 526 kts 140°
2026-04-26 04:49 31.50803 -85.58493 38911 ft 525 kts 140°
2026-04-26 04:49 31.45307 -85.52854 38916 ft 524 kts 141°
2026-04-26 04:50 31.39817 -85.47231 38924 ft 524 kts 140°
2026-04-26 04:50 31.34315 -85.41606 38926 ft 524 kts 140°
2026-04-26 04:51 31.28862 -85.36040 38924 ft 523 kts 140°
2026-04-26 04:51 31.23376 -85.30448 38915 ft 522 kts 141°
2026-04-26 04:52 31.17907 -85.24884 38900 ft 520 kts 141°
2026-04-26 04:52 31.12413 -85.19302 38889 ft 519 kts 141°
2026-04-26 04:53 31.07004 -85.13817 38890 ft 518 kts 141°
2026-04-26 04:53 31.01560 -85.08305 38888 ft 516 kts 141°
2026-04-26 04:54 30.96127 -85.02811 38895 ft 515 kts 141°
2026-04-26 04:54 30.90740 -84.97374 38891 ft 515 kts 141°
2026-04-26 04:55 30.85316 -84.91907 38889 ft 514 kts 141°
2026-04-26 04:55 30.79894 -84.86451 38888 ft 514 kts 141°
2026-04-26 04:56 30.74465 -84.80999 38890 ft 515 kts 141°
2026-04-26 04:56 30.69060 -84.75585 38893 ft 515 kts 141°
2026-04-26 04:57 30.63617 -84.70140 38889 ft 515 kts 141°
2026-04-26 04:57 30.58198 -84.64728 38889 ft 515 kts 141°
2026-04-26 04:58 30.52785 -84.59330 38898 ft 515 kts 141°
2026-04-26 04:58 30.47357 -84.53925 38903 ft 515 kts 141°
2026-04-26 04:59 30.41906 -84.48505 38909 ft 515 kts 141°
2026-04-26 04:59 30.36497 -84.43136 38910 ft 515 kts 141°
2026-04-26 05:00 30.31051 -84.37734 38912 ft 514 kts 141°
2026-04-26 05:00 30.25633 -84.32359 38910 ft 514 kts 142°
2026-04-26 05:01 30.20227 -84.27004 38908 ft 513 kts 142°
2026-04-26 05:01 30.14800 -84.21636 38908 ft 513 kts 142°
2026-04-26 05:02 30.09392 -84.16295 38907 ft 513 kts 141°
2026-04-26 05:02 30.03958 -84.10937 38905 ft 512 kts 142°
2026-04-26 05:03 29.98551 -84.05613 38904 ft 512 kts 142°
2026-04-26 05:03 29.93146 -84.00299 38906 ft 511 kts 142°
2026-04-26 05:04 29.87732 -83.94984 38903 ft 511 kts 142°
2026-04-26 05:04 29.82253 -83.89774 38910 ft 509 kts 147°
2026-04-26 05:05 29.76179 -83.85640 38906 ft 507 kts 154°
2026-04-26 05:05 29.69987 -83.81655 38908 ft 507 kts 154°
2026-04-26 05:06 29.63857 -83.77713 38915 ft 507 kts 154°
2026-04-26 05:06 29.57706 -83.73762 38917 ft 506 kts 154°
2026-04-26 05:07 29.51520 -83.69794 38329 ft 513 kts 154°
2026-04-26 05:07 29.48413 -83.67801 37721 ft 510 kts 154°
2026-04-26 05:07 29.45336 -83.65829 37100 ft 509 kts 154°
2026-04-26 05:08 29.42265 -83.63862 36445 ft 507 kts 154°
2026-04-26 05:08 29.39185 -83.61891 35783 ft 506 kts 154°
2026-04-26 05:08 29.36082 -83.59955 35119 ft 505 kts 156°
2026-04-26 05:08 29.32846 -83.58382 34454 ft 502 kts 164°
2026-04-26 05:09 29.29556 -83.57217 33789 ft 501 kts 167°
2026-04-26 05:09 29.26190 -83.56085 33129 ft 501 kts 167°
2026-04-26 05:09 29.22862 -83.54961 32465 ft 497 kts 167°
2026-04-26 05:09 29.19560 -83.53845 31811 ft 492 kts 167°
2026-04-26 05:10 29.16339 -83.52757 31156 ft 486 kts 167°
2026-04-26 05:10 29.13086 -83.51659 30520 ft 478 kts 166°
2026-04-26 05:10 29.09959 -83.50603 29891 ft 470 kts 166°
2026-04-26 05:10 29.06829 -83.49547 29270 ft 463 kts 167°
2026-04-26 05:11 29.03790 -83.48523 28657 ft 457 kts 166°
2026-04-26 05:11 29.00741 -83.47497 28048 ft 452 kts 166°
2026-04-26 05:11 28.97759 -83.46465 27453 ft 451 kts 163°
2026-04-26 05:11 28.94841 -83.45055 26851 ft 449 kts 157°
2026-04-26 05:12 28.92047 -83.43597 26288 ft 443 kts 158°
2026-04-26 05:12 28.89237 -83.42139 25700 ft 437 kts 158°
2026-04-26 05:12 28.86510 -83.40726 25131 ft 431 kts 158°
2026-04-26 05:12 28.83791 -83.39317 24564 ft 425 kts 157°
2026-04-26 05:13 28.81101 -83.37926 24005 ft 419 kts 157°
2026-04-26 05:13 28.78491 -83.36577 23459 ft 414 kts 157°
2026-04-26 05:13 28.75881 -83.35229 22921 ft 409 kts 157°
2026-04-26 05:13 28.73291 -83.33891 22381 ft 403 kts 157°
2026-04-26 05:14 28.70784 -83.32598 21855 ft 397 kts 157°
2026-04-26 05:14 28.68255 -83.31294 21315 ft 392 kts 157°
2026-04-26 05:14 28.65795 -83.30028 20805 ft 386 kts 157°
2026-04-26 05:14 28.63374 -83.28781 20304 ft 381 kts 157°
2026-04-26 05:15 28.60979 -83.27549 19792 ft 376 kts 157°
2026-04-26 05:15 28.58629 -83.26341 19304 ft 371 kts 157°
2026-04-26 05:15 28.56287 -83.25137 18862 ft 365 kts 156°
2026-04-26 05:15 28.53967 -83.23946 18361 ft 361 kts 156°
2026-04-26 05:16 28.51681 -83.22772 17884 ft 357 kts 156°
2026-04-26 05:16 28.49430 -83.21617 17419 ft 353 kts 156°
2026-04-26 05:16 28.47197 -83.20473 16948 ft 350 kts 156°
2026-04-26 05:16 28.44986 -83.19339 16483 ft 347 kts 156°
2026-04-26 05:17 28.42769 -83.18203 16019 ft 344 kts 157°
2026-04-26 05:17 28.40621 -83.17103 15569 ft 341 kts 157°
2026-04-26 05:17 28.38445 -83.15996 15113 ft 339 kts 157°
2026-04-26 05:17 28.36302 -83.14924 14671 ft 336 kts 158°
2026-04-26 05:18 28.34185 -83.13866 14231 ft 333 kts 158°
2026-04-26 05:18 28.32046 -83.12798 13787 ft 332 kts 158°
2026-04-26 05:18 28.29931 -83.11741 13343 ft 331 kts 158°
2026-04-26 05:18 28.27884 -83.10619 12911 ft 330 kts 148°
2026-04-26 05:19 28.26106 -83.08998 12555 ft 325 kts 139°
2026-04-26 05:19 28.24395 -83.07313 12353 ft 324 kts 139°
2026-04-26 05:19 28.22689 -83.05645 12048 ft 325 kts 139°
2026-04-26 05:19 28.20984 -83.04009 11774 ft 322 kts 143°
2026-04-26 05:20 28.19019 -83.02844 11496 ft 313 kts 165°
2026-04-26 05:20 28.16911 -83.02499 11225 ft 301 kts 180°
2026-04-26 05:20 28.14838 -83.02415 10926 ft 293 kts 180°
2026-04-26 05:20 28.12857 -83.02325 10714 ft 278 kts 180°
2026-04-26 05:21 28.10946 -83.02240 10477 ft 273 kts 181°
2026-04-26 05:21 28.09084 -83.02157 10230 ft 267 kts 180°
2026-04-26 05:21 28.07238 -83.02074 9999 ft 261 kts 181°
2026-04-26 05:21 28.05436 -83.01994 9769 ft 256 kts 181°
2026-04-26 05:22 28.03647 -83.01914 9538 ft 252 kts 181°
2026-04-26 05:22 28.01910 -83.01837 9323 ft 246 kts 181°
2026-04-26 05:22 28.00231 -83.01762 9111 ft 242 kts 181°
2026-04-26 05:22 27.98544 -83.01687 8894 ft 237 kts 181°
2026-04-26 05:23 27.96918 -83.01614 8690 ft 232 kts 181°
2026-04-26 05:23 27.95313 -83.01543 8487 ft 228 kts 181°
2026-04-26 05:23 27.93733 -83.01472 8285 ft 224 kts 180°
2026-04-26 05:23 27.92179 -83.01403 8087 ft 220 kts 181°
2026-04-26 05:24 27.90657 -83.01335 7893 ft 216 kts 180°
2026-04-26 05:24 27.89174 -83.01269 7706 ft 211 kts 181°
2026-04-26 05:24 27.87720 -83.01204 7523 ft 208 kts 181°
2026-04-26 05:24 27.86260 -83.01139 7332 ft 209 kts 180°
2026-04-26 05:25 27.84802 -83.01075 7141 ft 208 kts 180°
2026-04-26 05:25 27.83364 -83.01011 6965 ft 206 kts 180°
2026-04-26 05:25 27.81918 -83.00947 6785 ft 206 kts 180°
2026-04-26 05:25 27.80501 -83.00884 6600 ft 205 kts 180°
2026-04-26 05:26 27.79078 -83.00722 6418 ft 204 kts 165°
2026-04-26 05:26 27.77904 -82.99918 6244 ft 197 kts 136°
2026-04-26 05:26 27.76996 -82.98801 6091 ft 187 kts 133°
2026-04-26 05:26 27.76128 -82.97717 5938 ft 188 kts 133°
2026-04-26 05:27 27.75250 -82.96628 5866 ft 186 kts 134°
2026-04-26 05:27 27.74360 -82.95555 5842 ft 187 kts 135°
2026-04-26 05:27 27.73450 -82.94488 5811 ft 187 kts 136°
2026-04-26 05:27 27.72538 -82.93438 5784 ft 187 kts 136°
2026-04-26 05:28 27.71628 -82.92400 5766 ft 187 kts 136°
2026-04-26 05:28 27.70706 -82.91345 5738 ft 188 kts 136°
2026-04-26 05:28 27.69792 -82.90294 5710 ft 188 kts 136°
2026-04-26 05:28 27.68879 -82.89239 5692 ft 188 kts 136°
2026-04-26 05:29 27.67968 -82.88187 5669 ft 188 kts 135°
2026-04-26 05:29 27.67046 -82.87122 5642 ft 187 kts 136°
2026-04-26 05:29 27.66135 -82.86073 5609 ft 187 kts 136°
2026-04-26 05:29 27.65222 -82.85018 5568 ft 185 kts 135°
2026-04-26 05:30 27.64324 -82.83980 5519 ft 186 kts 136°
2026-04-26 05:30 27.63413 -82.82931 5479 ft 186 kts 136°
2026-04-26 05:30 27.62505 -82.81886 5441 ft 186 kts 135°
2026-04-26 05:30 27.61601 -82.80846 5405 ft 186 kts 136°
2026-04-26 05:31 27.60700 -82.79806 5376 ft 186 kts 136°
2026-04-26 05:31 27.59784 -82.78752 5344 ft 186 kts 135°
2026-04-26 05:31 27.58902 -82.77735 5249 ft 175 kts 136°
2026-04-26 05:31 27.58074 -82.76781 5086 ft 168 kts 136°
2026-04-26 05:32 27.57263 -82.75847 4817 ft 165 kts 136°
2026-04-26 05:32 27.56468 -82.74935 4484 ft 163 kts 136°
2026-04-26 05:32 27.55682 -82.74030 4172 ft 159 kts 136°
2026-04-26 05:32 27.54911 -82.73143 3947 ft 157 kts 137°
2026-04-26 05:33 27.54154 -82.72273 3750 ft 156 kts 136°
2026-04-26 05:33 27.53387 -82.71394 3565 ft 156 kts 136°
2026-04-26 05:33 27.52628 -82.70521 3382 ft 155 kts 136°
2026-04-26 05:33 27.51881 -82.69662 3203 ft 147 kts 136°
2026-04-26 05:34 27.51196 -82.68872 3106 ft 137 kts 136°
2026-04-26 05:34 27.50535 -82.68115 2941 ft 135 kts 136°
2026-04-26 05:34 27.49877 -82.67361 2696 ft 133 kts 136°
2026-04-26 05:34 27.49231 -82.66620 2465 ft 132 kts 136°
2026-04-26 05:35 27.48588 -82.65882 2299 ft 131 kts 135°
2026-04-26 05:35 27.47953 -82.65152 2129 ft 131 kts 136°
2026-04-26 05:35 27.47306 -82.64410 1967 ft 131 kts 136°
2026-04-26 05:35 27.46670 -82.63681 1792 ft 130 kts 136°
2026-04-26 05:36 27.46030 -82.62947 1627 ft 131 kts 135°
2026-04-26 05:36 27.45393 -82.62215 1454 ft 130 kts 136°
2026-04-26 05:36 27.44754 -82.61482 1286 ft 131 kts 135°
2026-04-26 05:36 27.44112 -82.60747 1111 ft 131 kts 135°
2026-04-26 05:37 27.43474 -82.60017 938 ft 129 kts 135°
2026-04-26 05:37 27.42848 -82.59299 775 ft 129 kts 135°
2026-04-26 05:37 27.42222 -82.58581 611 ft 128 kts 135°
2026-04-26 05:37 27.41594 -82.57859 448 ft 128 kts 134°
2026-04-26 05:38 27.40967 -82.57146 302 ft 127 kts 135°
2026-04-26 05:38 27.40345 -82.56428 85 ft 127 kts 134°
2026-04-26 05:38 27.39770 -82.55766 23 ft 105 kts 134°
2026-04-26 05:38 27.39415 -82.55362 24 ft 25 kts 133°
2026-04-26 05:39 27.39383 -82.55277 24 ft 9 kts 51°
2026-04-26 05:39 27.39446 -82.55234 24 ft 10 kts 347°
2026-04-26 05:39 27.39512 -82.55302 24 ft 15 kts 308°